Flag for Switzerland Weather past 2 weeks in Geneva, Geneva, Switzerland

Now
64 °F

Mild.


Feels Like: 64 °F
Forecast: 47 / 76 °F
Wind: 3 mph from Southwest

Location: Geneve-Cointrin

Current Time: May 30, 2015 at 9:40:54 AM

Latest Report: May 30, 2015 at 9:00 AM


Visibility: N/A

Pressure: 30.01 "Hg

Humidity: 51%

Dew point: 45 °F

Location of GenevaLocation

Historic Weather in Geneva — Graph

°F

Geneva temperature yesterday

Maximum temperature yesterday: 78 °F (at 3:00 PM)
Minimum temperature yesterday: 49 °F (at 3:00 AM)
Average temperature yesterday: 65 °F

Past Weeks' High & Low Weather Summary

 TemperatureHumidityPressure
High78 °F (May 29, 3:00 PM)93% (May 26, 5:00 AM)30.33 "Hg (May 26, 5:00 AM)
Low43 °F (May 28, 5:00 AM)23% (May 28, 4:00 PM)29.75 "Hg (May 18, 6:00 PM)
Average58 °F60%30.06 "Hg
* Reported May 15 8:00 AM — May 30 8:00 AM, Geneva, Weather by CustomWeather, © 2015

Note: Actual official high and low records may vary slightly from our data, if they occured in-between our weather recording intervals... More about our weather records

Advertising

Geneva weather history for previous 24 hours

 ConditionsComfort  
Time TempWeatherWind HumidityBarometerVisibility
8:00 AM
Sat, May 30
60 °FScattered clouds.5 mph66%30.02 "Hg31 mi
7:00 AM58 °FCool.2 mph69%30.02 "HgN/A
6:00 AM59 °FCool.2 mph63%30.00 "HgN/A
4:00 AM59 °FCool.2 mph69%30.00 "HgN/A
3:00 AM62 °FRefreshingly cool.6 mph58%29.98 "HgN/A
2:00 AM62 °FPassing clouds.5 mph62%29.99 "Hg25 mi
1:00 AM63 °FMild.5 mph61%29.98 "HgN/A
12:00 AM62 °FCool.6 mph66%29.97 "HgN/A
11:00 PM
Fri, May 29
66 °FPassing clouds.14 mph57%29.93 "Hg25 mi
10:00 PM65 °FMild.1 mph57%29.90 "HgN/A
9:00 PM68 °FMild.3 mph49%29.86 "HgN/A
8:00 PM73 °FPassing clouds.6 mph38%29.84 "Hg31 mi
7:00 PM77 °FMild.12 mph31%29.82 "HgN/A
6:00 PM77 °FPleasantly warm.14 mph29%29.82 "HgN/A
5:00 PM76 °FPassing clouds.10 mph29%29.83 "Hg31 mi
4:00 PM78 °FPleasantly warm.18 mph26%29.83 "HgN/A
3:00 PM78 °FPleasantly warm.16 mph28%29.84 "HgN/A
2:00 PM76 °FPassing clouds.17 mph31%29.87 "Hg37 mi
1:00 PM75 °FMild.20 mph31%29.88 "HgN/A
12:00 PM73 °FMild.14 mph35%29.90 "HgN/A
11:00 AM67 °FScattered clouds.6 mph40%29.93 "Hg43 mi
10:00 AM65 °FMild.6 mph39%29.95 "HgN/A
9:00 AM61 °FRefreshingly cool.3 mph47%29.96 "HgN/A
Weather by CustomWeather, © 2015

See weather overviewHow to use our weather pages